Regional Weather Roundup
Issued by NWS

Home | Current Version | Previous Version | Graphics & Text | Print | Product List | Glossary On
Versions: 1 2 3 4 5 6 7 8 9 10 11 12 13 14 15 16 17 18 19 20 21 22 23 24 25 26 27 28 29 30 31 32 33 34 35 36 37 38 39 40 41 42 43 44 45 46 47 48 49 50
000
ASUS43 KMPX 242110
RWRMN
WEATHER ROUNDUP FOR MINNESOTA
NATIONAL WEATHER SERVICE TWIN CITIES/CHANHASSEN MN
400 PM CDT SUN MAY 24 2015


NOTE: "FAIR" INDICATES FEW OR NO CLOUDS BELOW 12,000 FEET WITH NO
SIGNIFICANT WEATHER AND/OR OBSTRUCTIONS TO VISIBILITY. N/A MEANS
CURRENT SKY AND/OR WEATHER CONDITIONS ARE NOT AVAILABLE.

MNZ060>063-068>070-242200-
   Twin Cities Metro

CITY           SKY/WX    TMP DP  RH WIND       PRES   REMARKS
TWIN CITIES    LGT RAIN  61  58  90 E12       29.93F
ST PAUL        LGT RAIN  60  58  92 E9        29.94F
CRYSTAL        LGT RAIN  61  57  87 E8        29.93F
BLAINE         LGT RAIN  63  61  94 E7        29.95F
LAKEVILLE      LGT RAIN  57  57 100 E13       29.92F
EDEN PRAIRIE   LGT RAIN  60  58  92 E8        29.91F FOG
SOUTH ST PAUL  LGT RAIN  61  58  91 E6        29.93F
LAKE ELMO      DRIZZLE   61  59  94 E7        29.95F
$$
MNZ001>005-007-008-013>017-022>024-027-028-242200-
   Northwest Minnesota

CITY           SKY/WX    TMP DP  RH WIND       PRES   REMARKS
BEMIDJI        CLOUDY    68  47  45 E8        29.98F
HALLOCK        CLOUDY    79  36  21 SE8       29.95F
ROSEAU         CLOUDY    79  41  25 SE8       29.95F
WARROAD        CLOUDY    77  46  33 E5        29.97F
THIEF RVR FALL CLOUDY    73  45  35 SE8       29.97F
CROOKSTON      CLOUDY    75  46  35 E7        29.95F
FOSSTON        CLOUDY    72  48  43 E5        29.97F
DETROIT LAKES  CLOUDY    68  50  52 SE13      29.96F
MOORHEAD       CLOUDY    72  50  46 E10G16    29.94F
PARK RAPIDS    CLOUDY    72  47  40 SE12      29.96F
MAHNOMEN       CLOUDY    70  48  45 E8        29.95F
$$
MNZ006-009>011-018-025>026-242200-
   North Central Minnesota

CITY           SKY/WX    TMP DP  RH WIND       PRES   REMARKS
BAUDETTE       CLOUDY    77  41  27 CALM      29.96F
FLAG ISLAND    PTSUNNY   66  54  63 S6        29.96S
INTL FALLS     CLOUDY    77  41  27 CALM      29.96F
WASKISH        CLOUDY    72  54  53 CALM      29.97F
BIG FORK       CLOUDY    73  48  40 S3        29.98F
LONGVILLE      CLOUDY    72  48  43 E5        29.97F
GRAND RAPIDS   CLOUDY    70  46  43 SE6       30.00F
CRANE LAKE     CLOUDY    75  37  25 NE5       29.98F
ORR            CLOUDY    75  37  25 CALM      29.95F
COOK           CLOUDY    75  45  33 E3        29.97F
WALKER         CLOUDY    68  50  51 E6        29.97F
$$
MNZ012-019>021-037-242200-
   Northeast Minnesota

CITY           SKY/WX    TMP DP  RH WIND       PRES   REMARKS
DULUTH         CLOUDY    70  45  40 E6        29.99F
ELY            CLOUDY    75  37  25 NE5       29.97F
HIBBING        CLOUDY    70  48  45 S7        29.99F
EVELETH        CLOUDY    70  46  43 S8        30.01F
DULUTH HARBOR  CLOUDY    61  48  63 NE5       29.98F
TWO HARBORS    CLOUDY    75  52  43 SE5       29.97F
GRAND MARAIS     N/A     48  39  71 SW3       29.99F
G MARAIS ARPRT PTSUNNY   70  37  30 S6        30.03F
$$
MNZ029>031-032-039>041-046>048-054>057-064-242200-
   West Central Minnesota

CITY           SKY/WX    TMP DP  RH WIND       PRES   REMARKS
FERGUS FALLS   CLOUDY    66  54  63 SE15      29.94S
WHEATON        CLOUDY    63  54  72 E17       29.93S
MORRIS         DRIZZLE   63  59  88 E12       29.92S
ALEXANDRIA     CLOUDY    61  58  90 E8        29.96F
ELBOW LAKE     DRIZZLE   62  56  79 E14       29.94S
WADENA         CLOUDY    66  52  59 SE9       29.95F
GLENWOOD       CLOUDY    61  55  82 E14       29.96S
APPLETON       RAIN      61  57  88 E13G18    29.91S
BENSON         DRIZZLE   61  55  82 E8        29.93S
ORTONVILLE     LGT RAIN  61  55  82 E15       29.91F
MADISON        CLOUDY    61  57  88 NE15      29.89F
WILLMAR        LGT RAIN  61  59  94 E13G20    29.92F
$$
MNZ033>034-036-042>043-049>051-058-059-242200-
   Central Minnesota

CITY           SKY/WX    TMP DP  RH WIND       PRES   REMARKS
ST CLOUD       LGT RAIN  60  57  89 E8        29.95F FOG
SAUK CENTRE    DRIZZLE   60  56  86 E8        29.96S
PAYNESVILLE    LGT RAIN  58  56  94 NE7       29.94F
AITKIN         CLOUDY    72  50  46 E7        29.96F
PINE RIVER     CLOUDY    68  52  56 E10       30.00F
BRAINERD       CLOUDY    66  50  56 SE12      29.98F
STAPLES        CLOUDY    66  52  59 SE8       29.96F
LONG PRAIRIE   CLOUDY    61  55  82 NE6       29.97S
LITTLE FALLS   LGT RAIN  61  55  82 NE3       29.97F
LITCHFIELD     RAIN      61  61 100 E10       29.93F
BUFFALO        RAIN      60  57  88 E6        29.95F
MAPLE LAKE     LGT RAIN  61  59  94 NE8       29.94F
$$
MNZ037-044-045-052-053-242200-
   East Central Minnesota

CITY           SKY/WX    TMP DP  RH WIND       PRES   REMARKS
PRINCETON      RAIN      63  57  82 E3        29.96F
MORA           RAIN      61  54  77 S5        30.00S
CAMBRIDGE      LGT RAIN  64  54  68 E7G16     29.95F
RUSH CITY      CLOUDY    63  57  81 SE5       29.98F
MOOSE LAKE     LGT RAIN  68  50  52 SE6       29.97S
HINCKLEY       DRIZZLE   64  55  72 SE6       29.99S
CLOQUET        CLOUDY    70  46  43 E3        29.99F
MCGREGOR       CLOUDY    70  50  49 SE8       29.99F
$$
MNZ071>073-080-081-089-090-097-098-242200-
   Southwest Minnesota

CITY           SKY/WX    TMP DP  RH WIND       PRES   REMARKS
MONTEVIDEO     DRIZZLE   61  61 100 E14       29.91F
GRANITE FALLS  LGT RAIN  59  57  94 E12       29.91S
CANBY          LGT RAIN  60  58  94 E13       29.89F
MARSHALL       CLOUDY    59  54  82 E14       29.87F
REDWOOD FALLS  LGT RAIN  60  58  92 E12       29.88F FOG
OLIVIA         LGT RAIN  57  54  88 E12G17    29.89F
PIPESTONE      CLOUDY    61  57  88 E12       29.84F
WINDOM         RAIN      61  57  88 E13G18    29.85F
WORTHINGTON    CLOUDY    61  55  82 E13       29.84F
JACKSON        LGT RAIN  59  59 100 E13       29.84F
TRACY          DRIZZLE   60  59  96 E12       29.87F
SLAYTON        CLOUDY    59  59  99 E12G18    29.86F FOG
$$
MNZ065>067-074>077-082>085-091>093-242200-
   South Central Minnesota

CITY           SKY/WX    TMP DP  RH WIND       PRES   REMARKS
MANKATO        CLOUDY    61  57  88 E12G21    29.89F
NEW ULM        LGT RAIN  61  59  94 E10       29.88F
ST JAMES       LGT RAIN  61  61 100 E14       29.87F
FAIRMONT       CLOUDY    61  55  82 E12       29.84F
GLENCOE        DRIZZLE   61  60  97 E8        29.91F
FARIBAULT      LGT RAIN  61  57  88 E10G16    29.91F
OWATONNA       LGT RAIN  61  57  88 E14       29.89F
WASECA         HVY RAIN  59  57  94 E14       29.90F
ALBERT LEA     DRIZZLE   59  59 100 SE9       29.87F
$$
MNZ078>079-086>088-094>096-242200-
   Southeast Minnesota

CITY           SKY/WX    TMP DP  RH WIND       PRES   REMARKS
ROCHESTER      LGT RAIN  58  57  97 E15       29.91F FOG
RED WING       LGT RAIN  61  57  88 E10G16    29.92F
STANTON        RAIN      61  57  88 E12       29.91F
DODGE CENTER   RAIN      59  57  94 E16       29.90F
WINONA         DRIZZLE   59  57  94 SE9       29.93F
AUSTIN         LGT RAIN  59  57  94 SE14      29.87F
PRESTON        CLOUDY    57  55  94 SE9       29.92F
$$
ABBREVIATIONS USED IN REMARKS
   TC - TEMPERATURES IN CELSIUS
  WCI - WIND CHILL INDEX
   HX - HEAT INDEX
  VSB - VISIBILITY
$$



USA.gov is the U.S. government's official web portal to all federal, state and local government web resources and services.